Regional Weather Roundup
Issued by NWS Bismarck, ND

Home | Current Version | Previous Version | Text Only | Print | Product List | Glossary On
Versions: 1 2 3 4 5 6 7 8 9 10 11 12 13 14 15 16 17 18 19 20 21 22 23 24 25 26 27 28 29 30 31 32 33 34 35 36 37 38 39 40 41 42 43 44 45 46 47 48 49 50
000
ASUS43 KBIS 230102
RWRBIS

NWR BROADCAST TEXT
NATIONAL WEATHER SERVICE BISMARCK ND
700 PM CST SUN JAN 22 2017

NOTE: "FAIR" INDICATES FEW OR NO CLOUDS BELOW 12,000 FEET WITH NO
SIGNIFICANT WEATHER AND/OR OBSTRUCTIONS TO VISIBILITY.


CITY           SKY/WX    TMP DP  RH WIND       PRES   REMARKS
WILLISTON      CLOUDY    30  24  78 W9        29.83R
MINOT          CLOUDY    31  28  89 W13       29.78S
MINOT AFB      CLOUDY    30  28  91 W9        29.77S
BISMARCK       CLOUDY    33  27  78 NW8       29.84S
DICKINSON      CLOUDY    26  23  88 NW17      29.80R WCI  13
GARRISON         N/A     30  25  81 W13       29.80R WCI  20
HETTINGER ARPT CLOUDY    25  22  88 W14       29.84S WCI  13
JAMESTOWN      CLOUDY    33  28  81 NW18      29.79R
CARRINGTON     CLOUDY    32  28  86 NW16      29.81R
HAZEN          CLOUDY   N/A N/A N/A NW13      29.84S
MANDAN         CLOUDY    30  28  93 NW7       29.84R
STANLEY        CLOUDY    28  28 100 W10       29.80S WCI  19
WATFORD CITY   CLOUDY    28  23  80 W8        29.83R
$$

CITY           SKY/WX    TMP DP  RH WIND       PRES   REMARKS
GRAND FORKS    CLOUDY    33  29  85 SW5       29.76S
GRAND FORKS AF CLOUDY    33  30  89 W6        29.76S
DEVILS LAKE    CLOUDY    30  27  88 W16       29.76R WCI  19
FARGO          CLOUDY    34  31  88 W6        29.78S FOG
GRAFTON        CLOUDY    32  32 100 W6        29.77R FOG
GWINNER        CLOUDY    34  32  93 W7        29.80R
$$

CITY           SKY/WX    TMP DP  RH WIND       PRES   REMARKS
ABERDEEN       CLOUDY    31  26  82 W9        29.85R
MOBRIDGE       CLOUDY    31  25  78 NW10      29.84S
BUFFALO          N/A     21  18  88 NW6       29.76S WCI  13
RAPID CITY     FAIR      27  22  81 CALM      29.84R
GLASGOW        CLOUDY    30  25  81 SW6       29.81S
SIDNEY         CLOUDY    30  23  75 NW7       29.85R
WOLF POINT     CLOUDY    31  25  78 SW7       29.84S
GLENDIVE       CLOUDY    27  23  85 NW8       29.85S WCI  19
MILES CITY     CLOUDY    24  20  84 SE6       29.84S WCI  17
BAKER          CLOUDY    24  21  88 W8        29.84S WCI  15
$$

CITY           SKY/WX    TMP DP  RH WIND       PRES   REMARKS
BILLINGS       MOCLDY    33  22  63 CALM      29.75R
GREAT FALLS    FOG       24  22  91 NE15      29.70F VSB 1/4 WCI  11
$$




USA.gov is the U.S. government's official web portal to all federal, state and local government web resources and services.